Location: Observatoire
(46.1952°N, 5.3391°E)
Time: 06:10:32
(UTC+01:00)

Courier 1B Rocket - Pass Details

Date: 17 February 2026
Orbit: 920 x 1201 km, 28.2° (Epoch: 14 March)

Event Time Altitude Azimuth Distance (km) Brightness Sun altitude
Rises 19:52:14 0° 212° (SSW) 3,546 8.4 -18.8°
Reaches altitude 10° 19:57:16 10° 178° (S) 2,636 7.2 -19.6°
Maximum altitude 19:58:45 11° 164° (SSE) 2,589 7.0 -19.9°
Enters shadow 19:59:54 10° 153° (SSE) 2,637 7.0 -20.1°
Drops below altitude 10° 20:00:15 10° 150° (SSE) 2,666 - -20.1°
Sets 20:05:27 0° 116° (ESE) 3,681 - -21.0°
